FW8343 Weather Reports


time (UTC)temp
C
wind
direction
speed
KPH
gust
KPH
rain 1hr
cm
rain 24hr
cm
rain mn
cm
humidity
%
barometer
mb
20260831014536 21 166 3.2 11.3 0.00 0.00 0.00 95 1013.7
20260831014021 21 143 3.2 8.0 0.00 0.00 0.00 95 1013.6
20260831013521 21 136 3.2 8.0 0.00 0.00 0.00 95 1013.5
20260831013040 20 163 3.2 8.0 0.00 0.00 0.00 96 1013.5
20260831012517 20 155 0.0 6.4 0.00 0.00 0.00 96 1013.4
20260831012017 20 165 0.0 6.4 0.00 0.00 0.00 95 1013.1
20260831011539 20 0 0.0 3.2 0.00 0.00 0.00 95 1013.0
20260831011023 20 0 0.0 1.6 0.00 0.00 0.00 95 1013.1
20260831010521 20 0 0.0 1.6 0.00 0.00 0.00 95 1013.1
20260831010036 20 0 0.0 1.6 0.00 0.00 0.00 95 1013.2
20260831005520 20 0 0.0 1.6 0.00 0.00 0.00 95 1013.1
20260831005021 20 0 0.0 1.6 0.00 0.00 0.00 94 1013.1
20260831004536 20 0 0.0 1.6 0.00 0.00 0.00 94 1013.3
20260831004020 20 0 0.0 1.6 0.00 0.00 0.00 94 1013.3
20260831003518 20 0 0.0 0.0 0.00 0.00 0.00 93 1013.5
20260831003041 20 0 0.0 0.0 0.00 0.00 0.00 93 1013.6
20260831002518 20 0 0.0 0.0 0.00 0.00 0.00 93 1013.6
20260831002018 20 0 0.0 0.0 0.00 0.00 0.00 93 1013.7
20260831001534 20 0 0.0 0.0 0.00 0.00 0.00 93 1013.7
20260831001020 20 0 0.0 0.0 0.00 0.00 0.00 93 1013.7
20260831000521 20 0 0.0 1.6 0.00 0.00 0.00 92 1013.8
20260831000037 20 0 0.0 1.6 0.00 0.00 0.00 93 1013.8
20260830235522 20 0 0.0 1.6 0.00 0.00 0.00 92 1013.8
20260830235023 20 0 0.0 0.0 0.00 0.00 0.00 92 1013.8
20260830234543 20 0 0.0 3.2 0.00 0.00 0.00 92 1013.9
20260830234019 20 0 0.0 3.2 0.00 0.00 0.00 92 1013.9
20260830233518 20 0 0.0 0.0 0.00 0.00 0.00 92 1013.6
20260830233035 20 0 0.0 3.2 0.00 0.00 0.00 92 1013.4
20260830232518 20 0 0.0 3.2 0.00 0.00 0.00 92 1013.3
20260830232018 20 0 0.0 3.2 0.00 0.00 0.00 92 1013.5
20260830231541 20 0 0.0 3.2 0.00 0.00 0.00 92 1013.5
20260830231025 20 0 0.0 4.8 0.00 0.00 0.00 91 1013.6
20260830230522 20 0 0.0 4.8 0.00 0.00 0.00 91 1013.8
20260830230043 20 0 0.0 4.8 0.00 0.00 0.00 91 1013.9
20260830225521 20 0 0.0 6.4 0.00 0.00 0.00 91 1013.8
20260830225019 20 340 0.0 6.4 0.00 0.00 0.00 90 1013.9
20260830224542 20 0 0.0 6.4 0.00 0.00 0.00 90 1013.7
20260830224019 21 355 0.0 3.2 0.00 0.00 0.00 90 1013.7
20260830223515 21 0 0.0 3.2 0.00 0.00 0.00 90 1013.6
20260830223035 21 0 0.0 6.4 0.00 0.00 0.00 89 1013.5
20260830222519 21 0 0.0 6.4 0.00 0.00 0.00 88 1013.4
20260830222020 21 0 0.0 1.6 0.00 0.00 0.00 88 1013.2
20260830221540 22 0 0.0 3.2 0.00 0.00 0.00 88 1013.0
20260830221021 22 0 0.0 4.8 0.00 0.00 0.00 87 1013.0
20260830220522 22 0 0.0 4.8 0.00 0.00 0.00 86 1013.2
20260830220039 23 344 0.0 4.8 0.00 0.00 0.00 85 1013.6
20260830215517 23 0 0.0 0.0 0.00 0.00 0.00 85 1013.6
20260830215020 23 0 0.0 0.0 0.00 0.00 0.00 85 1013.7
20260830214536 23 0 0.0 0.0 0.00 0.00 0.00 85 1013.7
20260830214020 23 0 0.0 0.0 0.00 0.00 0.00 86 1013.6
20260830213520 22 0 0.0 0.0 0.00 0.00 0.00 86 1013.7
20260830213037 22 0 0.0 0.0 0.00 0.00 0.00 86 1013.7
20260830212519 22 0 0.0 4.8 0.00 0.00 0.00 86 1013.5
20260830212018 22 0 0.0 4.8 0.00 0.00 0.00 86 1013.6
20260830211534 22 0 0.0 3.2 0.00 0.00 0.00 85 1013.8
20260830211023 22 0 0.0 8.0 0.00 0.00 0.00 86 1013.9
20260830210520 22 140 3.2 8.0 0.00 0.00 0.00 84 1013.8
20260830210037 22 151 3.2 8.0 0.00 0.00 0.00 85 1013.7
20260830205523 22 137 4.8 9.7 0.00 0.00 0.00 84 1013.7
20260830205021 23 159 4.8 9.7 0.00 0.00 0.00 85 1013.7
20260830204534 23 0 0.0 6.4 0.00 0.00 0.00 86 1013.8
20260830204020 23 0 0.0 6.4 0.00 0.00 0.00 86 1013.9
20260830203518 23 159 0.0 6.4 0.00 0.00 0.00 86 1013.8
20260830203039 23 0 0.0 1.6 0.00 0.00 0.00 86 1013.8
20260830202517 23 0 0.0 1.6 0.00 0.00 0.00 86 1013.7
20260830202020 23 0 0.0 0.0 0.00 0.00 0.00 87 1013.7
20260830201538 22 0 0.0 3.2 0.00 0.00 0.00 87 1013.7
20260830201020 22 0 0.0 4.8 0.00 0.00 0.00 87 1013.8
20260830200521 22 159 0.0 6.4 0.00 0.00 0.00 87 1013.9
20260830200034 22 159 0.0 8.0 0.00 0.00 0.00 87 1013.9
20260830195521 22 0 0.0 8.0 0.00 0.00 0.00 87 1013.9
20260830195021 22 256 0.0 8.0 0.00 0.00 0.00 87 1014.0
20260830194541 22 157 0.0 11.3 0.00 0.00 0.00 87 1013.9
20260830194025 22 0 0.0 11.3 0.00 0.00 0.00 87 1013.9
20260830193517 22 155 0.0 8.0 0.00 0.00 0.00 89 1013.9
20260830193042 22 0 0.0 8.0 0.00 0.00 0.00 89 1014.1
20260830192517 21 168 1.6 8.0 0.00 0.00 0.00 89 1014.1
20260830192015 21 163 3.2 16.1 0.00 0.00 0.00 89 1014.0
20260830191537 21 156 6.4 16.1 0.00 0.00 0.00 88 1013.9
20260830191021 21 176 1.6 8.0 0.00 0.00 0.00 89 1014.0
20260830190521 21 0 0.0 8.0 0.00 0.00 0.00 89 1014.0
20260830190037 21 146 0.0 6.4 0.00 0.00 0.00 88 1014.1
20260830185522 21 0 0.0 1.6 0.00 0.00 0.00 88 1014.0
20260830185021 21 0 0.0 8.0 0.00 0.00 0.00 89 1013.9
20260830184537 21 0 0.0 8.0 0.00 0.00 0.00 89 1013.9
20260830184018 21 0 0.0 6.4 0.00 0.00 0.00 89 1013.9
20260830183521 21 0 0.0 6.4 0.00 0.00 0.00 89 1014.1
20260830183034 21 161 0.0 6.4 0.00 0.00 0.00 89 1014.1
20260830182524 21 0 0.0 4.8 0.00 0.00 0.00 89 1014.2
20260830182024 21 0 0.0 4.8 0.00 0.00 0.00 89 1014.3
20260830181537 21 0 0.0 4.8 0.00 0.00 0.00 90 1014.3
20260830181022 21 0 0.0 4.8 0.00 0.00 0.00 89 1014.2
20260830180521 21 0 0.0 3.2 0.00 0.00 0.00 90 1014.1
20260830180053 21 0 0.0 3.2 0.00 0.00 0.00 90 1014.3
20260830175518 21 0 0.0 3.2 0.00 0.00 0.00 90 1014.4
20260830175017 21 0 0.0 3.2 0.00 0.00 0.00 90 1014.3
20260830174538 21 0 0.0 8.0 0.00 0.00 0.00 90 1014.2
20260830174020 21 0 0.0 8.0 0.00 0.00 0.00 90 1014.2
20260830173522 21 0 0.0 3.2 0.00 0.00 0.00 91 1014.3
20260830173052 20 0 0.0 3.2 0.00 0.00 0.00 91 1014.3
20260830172519 20 0 0.0 3.2 0.00 0.00 0.00 92 1014.4
20260830172016 20 0 0.0 4.8 0.00 0.00 0.00 92 1014.4
20260830171536 20 0 0.0 4.8 0.00 0.00 0.00 93 1014.4
20260830171018 20 218 0.0 8.0 0.00 0.00 0.00 92 1014.4
20260830170520 20 148 1.6 8.0 0.00 0.00 0.00 92 1014.4
20260830170037 20 0 0.0 3.2 0.00 0.00 0.00 94 1014.5
20260830165525 20 0 0.0 6.4 0.00 0.00 0.00 93 1014.6
20260830165024 20 0 0.0 6.4 0.00 0.00 0.00 93 1014.6
20260830164543 20 0 0.0 3.2 0.00 0.00 0.00 94 1014.6
20260830164020 20 0 0.0 3.2 0.00 0.00 0.00 94 1014.8
20260830163516 20 0 0.0 3.2 0.00 0.00 0.00 95 1015.0
20260830163036 20 0 0.0 0.0 0.00 0.00 0.00 95 1014.7
20260830162520 20 0 0.0 0.0 0.00 0.00 0.00 95 1015.1
20260830162023 19 0 0.0 0.0 0.00 0.00 0.00 95 1015.2
20260830161535 19 0 0.0 0.0 0.00 0.00 0.00 95 1015.2
20260830161019 19 0 0.0 1.6 0.00 0.00 0.00 95 1015.1
20260830160521 19 0 0.0 4.8 0.00 0.00 0.00 95 1015.2
20260830160039 19 0 0.0 4.8 0.00 0.00 0.00 95 1015.2
20260830155519 19 0 0.0 4.8 0.00 0.00 0.00 95 1015.1
20260830155022 19 174 0.0 3.2 0.00 0.00 0.00 95 1015.2
20260830154535 19 0 0.0 4.8 0.00 0.00 0.00 96 1015.1
20260830154019 19 0 0.0 4.8 0.00 0.00 0.00 96 1014.7
20260830153518 19 0 0.0 4.8 0.00 0.00 0.00 96 1014.4
20260830153035 19 0 0.0 4.8 0.00 0.00 0.00 97 1013.9
20260830152522 18 0 0.0 3.2 0.00 0.00 0.00 97 1013.7
20260830152020 18 0 0.0 4.8 0.00 0.00 0.00 97 1013.8
20260830151535 18 0 0.0 4.8 0.00 0.00 0.00 97 1014.2
20260830151024 18 0 0.0 4.8 0.00 0.00 0.00 97 1014.3
20260830150522 18 0 0.0 4.8 0.00 0.00 0.00 97 1014.5
20260830150039 18 124 0.0 4.8 0.00 0.00 0.00 98 1014.6
20260830145522 18 0 0.0 1.6 0.00 0.00 0.00 97 1014.5
20260830145022 18 0 0.0 0.0 0.00 0.00 0.00 97 1014.4
20260830144535 18 0 0.0 3.2 0.00 0.00 0.00 97 1014.5
20260830144018 18 0 0.0 4.8 0.00 0.00 0.00 98 1014.4
20260830143521 18 0 0.0 4.8 0.00 0.00 0.00 98 1014.4
20260830143037 18 0 0.0 0.0 0.00 0.00 0.00 98 1014.2
20260830142523 18 0 0.0 3.2 0.00 0.00 0.00 98 1014.3
20260830142020 18 0 0.0 3.2 0.00 0.00 0.00 98 1014.5
20260830141549 18 0 0.0 3.2 0.00 0.00 0.00 98 1014.5
20260830141021 18 0 0.0 3.2 0.00 0.00 0.00 98 1014.5
20260830140519 18 0 0.0 0.0 0.00 0.00 0.00 98 1014.5
20260830140045 18 0 0.0 0.0 0.00 0.00 0.00 98 1014.5
20260830135526 18 0 0.0 3.2 0.00 0.00 0.00 98 1014.4
20260830135019 17 0 0.0 3.2 0.00 0.00 0.00 98 1014.4
20260830134534 17 0 0.0 3.2 0.00 0.00 0.00 98 1014.3
20260830134019 18 0 0.0 0.0 0.00 0.00 0.00 99 1014.1
20260830133517 18 0 0.0 1.6 0.00 0.00 0.00 99 1014.0
20260830133041 17 0 0.0 1.6 0.00 0.00 0.00 99 1014.1
20260830132526 17 0 0.0 1.6 0.00 0.00 0.00 99 1014.1
20260830132022 17 0 0.0 0.0 0.00 0.00 0.00 99 1014.3
20260830131534 17 0 0.0 0.0 0.00 0.00 0.00 99 1014.4
20260830131023 17 0 0.0 0.0 0.00 0.00 0.00 99 1014.6
20260830130522 17 0 0.0 0.0 0.00 0.00 0.00 99 1014.6
20260830130034 17 0 0.0 0.0 0.00 0.00 0.00 99 1014.5
20260830125521 17 0 0.0 0.0 0.00 0.00 0.00 99 1014.5
20260830125019 17 0 0.0 0.0 0.00 0.00 0.00 99 1014.6
20260830124535 17 0 0.0 1.6 0.00 0.00 0.00 99 1014.5
20260830124019 17 0 0.0 1.6 0.00 0.00 0.00 99 1014.3
20260830123522 17 0 0.0 0.0 0.00 0.00 0.00 99 1013.8
20260830123038 17 0 0.0 0.0 0.00 0.00 0.00 99 1013.8
20260830122518 17 0 0.0 0.0 0.00 0.00 0.00 99 1013.9
20260830122020 17 0 0.0 0.0 0.00 0.00 0.00 99 1013.9
20260830121538 17 0 0.0 0.0 0.00 0.00 0.00 99 1014.2
20260830121025 17 0 0.0 0.0 0.00 0.00 0.00 99 1014.1
20260830120521 17 0 0.0 0.0 0.00 0.00 0.00 99 1014.1
20260830120035 17 0 0.0 0.0 0.00 0.00 0.00 99 1014.2
20260830115519 17 0 0.0 0.0 0.00 0.00 0.00 99 1014.1
20260830115021 17 0 0.0 1.6 0.00 0.00 0.00 99 1013.9
20260830114553 17 0 0.0 1.6 0.00 0.00 0.00 99 1014.0
20260830114018 17 0 0.0 0.0 0.00 0.00 0.00 99 1014.1
20260830113518 17 0 0.0 0.0 0.00 0.00 0.00 99 1014.1
20260830113034 17 0 0.0 0.0 0.00 0.00 0.00 99 1014.0
20260830112516 17 0 0.0 3.2 0.00 0.00 0.00 99 1014.0
20260830112018 17 0 0.0 3.2 0.00 0.00 0.00 99 1014.0
20260830111536 17 0 0.0 3.2 0.00 0.00 0.00 99 1013.9
20260830111020 17 0 0.0 0.0 0.00 0.00 0.00 99 1014.1
20260830110520 17 0 0.0 0.0 0.00 0.00 0.00 99 1014.0
20260830110036 17 0 0.0 0.0 0.00 0.00 0.00 99 1014.1
20260830105520 17 0 0.0 3.2 0.00 0.00 0.00 99 1014.1
20260830105019 17 0 0.0 3.2 0.00 0.00 0.00 99 1014.1
20260830104534 17 0 0.0 3.2 0.00 0.00 0.00 99 1014.1
20260830104018 17 0 0.0 0.0 0.00 0.00 0.00 99 1014.0
20260830103518 17 0 0.0 0.0 0.00 0.00 0.00 99 1013.9
20260830103037 17 0 0.0 3.2 0.00 0.00 0.00 99 1013.7
20260830102522 17 0 0.0 4.8 0.00 0.00 0.00 98 1013.6
20260830102021 17 0 0.0 4.8 0.00 0.00 0.00 99 1013.4
20260830101534 17 124 0.0 1.6 0.00 0.00 0.00 99 1013.5
20260830101022 17 0 0.0 1.6 0.00 0.00 0.00 99 1013.5
20260830100520 17 0 0.0 1.6 0.00 0.00 0.00 98 1013.6
20260830100036 17 0 0.0 1.6 0.00 0.00 0.00 98 1013.6
20260830095521 17 0 0.0 1.6 0.00 0.00 0.00 98 1013.6
20260830095020 17 0 0.0 1.6 0.00 0.00 0.00 98 1013.6
20260830094537 17 0 0.0 4.8 0.00 0.00 0.00 98 1013.6
20260830094017 17 0 0.0 4.8 0.00 0.00 0.00 98 1013.6
20260830093517 17 0 0.0 3.2 0.00 0.00 0.00 98 1013.5
20260830093035 17 124 0.0 3.2 0.00 0.00 0.00 98 1013.7
20260830092520 17 0 0.0 1.6 0.00 0.00 0.00 98 1013.7
20260830092022 17 0 0.0 4.8 0.00 0.00 0.00 98 1013.5
20260830091536 17 0 0.0 4.8 0.00 0.00 0.00 98 1013.6
20260830091024 17 124 0.0 4.8 0.00 0.00 0.00 98 1013.5
20260830090521 17 0 0.0 1.6 0.00 0.00 0.00 98 1013.5
20260830090055 17 0 0.0 1.6 0.00 0.00 0.00 98 1013.5
20260830085516 17 0 0.0 0.0 0.00 0.00 0.00 98 1013.6
20260830085016 17 0 0.0 0.0 0.00 0.00 0.00 98 1013.7
20260830084536 17 0 0.0 0.0 0.00 0.00 0.00 98 1013.8
20260830084021 17 0 0.0 3.2 0.00 0.00 0.00 98 1013.8
20260830083521 17 0 0.0 4.8 0.00 0.00 0.00 98 1013.8
20260830083035 17 0 0.0 6.4 0.00 0.00 0.00 98 1013.8
20260830082520 17 124 1.6 6.4 0.00 0.00 0.00 98 1013.8
20260830082018 17 124 0.0 6.4 0.00 0.00 0.00 98 1013.7
20260830081540 17 136 3.2 6.4 0.00 0.00 0.00 98 1013.7
20260830081015 17 136 3.2 6.4 0.00 0.00 0.00 98 1013.6
20260830080516 17 136 1.6 6.4 0.00 0.00 0.00 98 1013.6
20260830080034 17 0 0.0 4.8 0.00 0.00 0.00 98 1013.4
20260830075520 17 0 0.0 4.8 0.00 0.00 0.00 98 1013.4
20260830075020 17 0 0.0 4.8 0.00 0.00 0.00 98 1013.4
20260830074538 17 0 0.0 0.0 0.00 0.00 0.00 97 1013.4
20260830074019 17 0 0.0 0.0 0.00 0.00 0.00 97 1013.4
20260830073518 17 0 0.0 3.2 0.00 0.00 0.00 97 1013.3
20260830073043 17 0 0.0 3.2 0.00 0.00 0.00 98 1013.3
20260830072521 17 0 0.0 3.2 0.00 0.00 0.00 98 1013.5
20260830072019 17 0 0.0 3.2 0.00 0.00 0.00 98 1013.6
20260830071539 17 0 0.0 4.8 0.00 0.00 0.00 98 1013.7
20260830071020 17 136 0.0 6.4 0.00 0.00 0.00 98 1013.6
20260830070520 17 136 0.0 6.4 0.00 0.00 0.00 98 1013.7
20260830070036 17 0 0.0 3.2 0.00 0.00 0.00 98 1013.8
20260830065518 17 0 0.0 3.2 0.00 0.00 0.00 98 1013.9
20260830065020 17 0 0.0 3.2 0.00 0.00 0.00 98 1014.1
20260830064535 17 0 0.0 1.6 0.00 0.00 0.00 97 1014.2
20260830064018 17 0 0.0 1.6 0.00 0.00 0.00 97 1014.3
20260830063522 17 136 0.0 0.0 0.00 0.00 0.00 97 1014.4
20260830063036 17 0 0.0 3.2 0.00 0.00 0.00 96 1014.4
20260830062522 17 0 0.0 3.2 0.00 0.00 0.00 97 1014.4
20260830062022 17 136 0.0 3.2 0.00 0.00 0.00 97 1014.6
20260830061541 17 0 0.0 4.8 0.00 0.00 0.00 97 1014.7
20260830061021 17 0 0.0 4.8 0.00 0.00 0.00 97 1014.7
20260830060519 17 0 0.0 3.2 0.00 0.00 0.00 97 1014.7
20260830060035 17 0 0.0 6.4 0.00 0.00 0.00 97 1015.0
20260830055520 17 0 0.0 6.4 0.00 0.00 0.00 97 1014.9
20260830055017 17 136 1.6 6.4 0.00 0.00 0.00 97 1014.9
20260830054534 17 0 0.0 4.8 0.00 0.00 0.00 97 1015.0
20260830054017 17 136 0.0 4.8 0.00 0.00 0.00 97 1015.0
20260830053521 17 136 1.6 6.4 0.00 0.00 0.00 97 1015.0
20260830053034 17 136 3.2 6.4 0.00 0.00 0.00 97 1015.0
20260830052519 17 136 3.2 6.4 0.00 0.00 0.00 97 1015.1
20260830052018 17 134 3.2 6.4 0.00 0.00 0.00 97 1015.1
20260830051539 17 134 1.6 6.4 0.00 0.00 0.00 97 1015.0
20260830051018 17 0 3.2 8.0 0.00 0.00 0.00 97 1015.0
20260830050518 17 134 3.2 9.7 0.00 0.00 0.00 97 1014.7
20260830050039 17 133 4.8 11.3 0.00 0.00 0.00 97 1014.7
20260830045520 17 123 3.2 11.3 0.00 0.00 0.00 97 1014.7
20260830045021 17 132 4.8 14.5 0.00 0.00 0.00 97 1014.6
20260830044538 17 153 1.6 14.5 0.00 0.00 0.00 97 1014.6
20260830044019 17 132 9.7 14.5 0.00 0.00 0.00 97 1014.4
20260830043521 17 135 6.4 12.9 0.00 0.00 0.00 97 1014.4
20260830043040 17 146 3.2 8.0 0.00 0.00 0.00 97 1014.7
20260830042517 17 140 3.2 11.3 0.00 0.00 0.00 97 1014.6
20260830042018 17 140 4.8 11.3 0.00 0.00 0.00 97 1014.8
20260830041539 17 140 4.8 11.3 0.00 0.00 0.00 97 1015.0
20260830041016 17 140 4.8 11.3 0.00 0.00 0.00 97 1014.9
20260830040521 17 140 6.4 12.9 0.00 0.00 0.00 97 1014.8
20260830040044 17 129 4.8 12.9 0.00 0.00 0.00 97 1014.7
20260830035521 17 119 4.8 14.5 0.00 0.00 0.00 97 1014.9
20260830035023 17 128 8.0 14.5 0.00 0.00 0.00 97 1015.0
20260830034538 17 140 8.0 14.5 0.00 0.00 0.00 97 1014.9
20260830034018 17 154 4.8 12.9 0.00 0.00 0.00 97 1014.9
20260830033518 17 127 6.4 19.3 0.00 0.00 0.00 97 1015.0
20260830033042 17 0 4.8 19.3 0.00 0.00 0.00 97 1015.0
20260830032522 17 115 6.4 19.3 0.00 0.00 0.00 97 1014.8
20260830032021 17 149 6.4 11.3 0.00 0.00 0.00 97 1014.8
20260830031535 17 156 3.2 8.0 0.00 0.00 0.00 97 1014.9
20260830031020 17 156 3.2 8.0 0.00 0.00 0.00 97 1014.9
20260830030521 17 0 1.6 11.3 0.00 0.00 0.00 97 1014.8
20260830030039 17 146 4.8 11.3 0.00 0.00 0.00 97 1014.8
20260830025526 17 131 4.8 11.3 0.00 0.00 0.00 97 1014.7
20260830025019 17 142 4.8 11.3 0.00 0.00 0.00 97 1014.9
20260830024534 17 167 4.8 12.9 0.00 0.00 0.00 97 1014.8
20260830024016 17 133 4.8 12.9 0.00 0.00 0.00 97 1014.7
20260830023522 17 135 6.4 12.9 0.00 0.00 0.00 97 1014.6
20260830023055 17 130 4.8 12.9 0.00 0.00 0.00 97 1014.7
20260830022523 17 144 4.8 12.9 0.00 0.00 0.00 97 1014.7
20260830022019 17 128 3.2 8.0 0.00 0.00 0.00 97 1014.8
20260830021535 17 128 3.2 11.3 0.00 0.00 0.00 97 1014.7
20260830021020 17 128 4.8 12.9 0.00 0.00 0.00 97 1014.7
20260830020521 17 140 3.2 12.9 0.00 0.00 0.00 97 1014.6
20260830020040 17 132 4.8 12.9 0.00 0.00 0.00 97 1014.5
20260830015518 17 138 4.8 12.9 0.00 0.00 0.00 97 1014.5
20260830015018 17 143 4.8 14.5 0.00 0.00 0.00 97 1014.6